TimeEDT,TemperatureF,Dew PointF,Humidity,Sea Level PressureIn,VisibilityMPH,Wind Direction,Wind SpeedMPH,Gust SpeedMPH,PrecipitationIn,Events,Conditions,WindDirDegrees,DateUTC
12:52 AM,33.1,27.0,78,30.22,10.0,Calm,Calm,-,N/A,,Overcast,0,2013-03-11 04:52:00
1:52 AM,33.1,27.0,78,30.22,10.0,Calm,Calm,-,N/A,,Mostly Cloudy,0,2013-03-11 05:52:00
2:52 AM,34.0,27.0,75,30.19,10.0,Calm,Calm,-,N/A,,Mostly Cloudy,0,2013-03-11 06:52:00
3:52 AM,33.1,27.0,78,30.15,10.0,Calm,Calm,-,N/A,,Mostly Cloudy,0,2013-03-11 07:52:00
4:52 AM,32.0,26.1,79,30.14,10.0,Calm,Calm,-,N/A,,Unknown,0,2013-03-11 08:52:00
6:52 AM,32.0,27.0,82,30.17,10.0,Calm,Calm,-,N/A,,Scattered Clouds,0,2013-03-11 10:52:00
7:52 AM,33.1,27.0,78,30.17,10.0,Calm,Calm,-,N/A,,Mostly Cloudy,0,2013-03-11 11:52:00
8:52 AM,34.0,27.0,75,30.15,10.0,Calm,Calm,-,N/A,,Scattered Clouds,0,2013-03-11 12:52:00
9:52 AM,41.0,27.0,57,30.14,10.0,Calm,Calm,-,N/A,,Mostly Cloudy,0,2013-03-11 13:52:00
10:52 AM,45.0,27.0,49,30.14,10.0,Calm,Calm,-,N/A,,Clear,0,2013-03-11 14:52:00
11:52 AM,46.0,27.0,47,30.13,10.0,West,4.6,-,N/A,,Mostly Cloudy,270,2013-03-11 15:52:00
12:52 PM,46.9,28.0,48,30.13,10.0,WNW,5.8,-,N/A,,Mostly Cloudy,300,2013-03-11 16:52:00
1:52 PM,48.9,28.0,44,30.11,10.0,Calm,Calm,-,N/A,,Mostly Cloudy,0,2013-03-11 17:52:00
2:52 PM,48.9,28.0,44,30.09,10.0,West,4.6,-,N/A,,Scattered Clouds,280,2013-03-11 18:52:00
3:52 PM,48.9,28.0,44,30.07,10.0,NW,5.8,-,N/A,,Scattered Clouds,310,2013-03-11 19:52:00
4:52 PM,48.9,27.0,43,30.06,10.0,WNW,4.6,-,N/A,,Clear,300,2013-03-11 20:52:00
5:52 PM,46.0,28.9,51,30.06,10.0,Calm,Calm,-,N/A,,Partly Cloudy,0,2013-03-11 21:52:00
6:52 PM,41.0,30.0,65,30.06,10.0,Calm,Calm,-,N/A,,Mostly Cloudy,0,2013-03-11 22:52:00
7:52 PM,42.1,28.0,58,30.08,10.0,ENE,3.5,-,N/A,,Mostly Cloudy,70,2013-03-11 23:52:00
8:52 PM,37.9,28.9,70,30.06,10.0,Calm,Calm,-,N/A,,Partly Cloudy,0,2013-03-12 00:52:00
9:52 PM,39.9,27.0,60,30.04,10.0,East,8.1,-,N/A,,Clear,80,2013-03-12 01:52:00
10:52 PM,41.0,24.1,51,30.03,10.0,Calm,Calm,-,N/A,,Partly Cloudy,0,2013-03-12 02:52:00
11:52 PM,51.1,18.0,27,30.02,10.0,SW,12.7,18.4,N/A,,Clear,220,2013-03-12 03:52:00